METEOR-M

导读

METEOR-M(流星-M)是独联体(CIS)继承自苏联航天遗产的俄罗斯推出的新一代极轨太阳同步轨道气象卫星,首星于2009年9月17日发射。卫星重约2.9吨,运行于820千米高轨道,配备多种先进探测载荷,可获取气象云图与环境观测数据,延续了苏联"流星"系列气象卫星脉络,为俄罗斯提供关键气象观测支撑,填补了当时俄国产气象卫星的空白。

基本信息
目录编号:
35865
目录名称:
METEOR-M
国际标识:
2009-049A
轨道中心:
EARTH
卫星名称:
METEOR-M
卫星全名:
--
卫星状态:
在轨 (已飞行6112 天)
发射日期:
2009-09-17 UTC
国别 :
俄罗斯(独联体) (CIS)
星等 :
--
轨道信息
数据来源 国际轨道数据
星历时间: 2026-06-12T11:41:48+0800
16小时前
查看轨道信息
半长轴: 7192.838km
偏心率: 0.0001887
轨道倾角: 98.738°
近地点辐角 354.906°
升交点赤经 125.664°
平近点角 5.210°
近地点: 813.343km
远地点: 816.059km
周期: 101.184分钟
每日圈数: 14.231557
详细信息
使用方式:
暂无
2D轨道图
3D轨道图
轨道高度分析图
轨道倾角分析图
轨道综合分析图
查看轨道综合分析图